Waarnemingen

Advertentie
Mijn weer
Landivisiau, Frankrijk (7106): temperatuur & dauwpunt: 17.04.2018 19:00:00 - 23.04.2018 19:00:00 (CEST)Landivisiau, Frankrijk (7106): temperatuur 5cm: 17.04.2018 19:00:00 - 23.04.2018 19:00:00 (CEST)Landivisiau, Frankrijk (7106): temperatuur -20cm: 17.04.2018 19:00:00 - 23.04.2018 19:00:00 (CEST)Landivisiau, Frankrijk (7106): windsnelheid & windstoten: 17.04.2018 19:00:00 - 23.04.2018 19:00:00 (CEST)Landivisiau, Frankrijk (7106): windrichting: 17.04.2018 19:00:00 - 23.04.2018 19:00:00 (CEST)Landivisiau, Frankrijk (7106): luchtdruk: 17.04.2018 19:00:00 - 23.04.2018 19:00:00 (CEST)Landivisiau, Frankrijk (7106): zicht: 17.04.2018 19:00:00 - 23.04.2018 19:00:00 (CEST)Landivisiau, Frankrijk (7106): neerslag: 17.04.2018 19:00:00 - 23.04.2018 19:00:00 (CEST)
Datum & Tijd tt [°C] td [°C] tt 5cm [°C] tt -20cm [°C] ff [km/u] ff [kn] fx [km/u] fx [kn] dd ppp [hPa] vv [km] rr [mm]
23.04.2018 19:00:00 - - - - - - - - - - - -
23.04.2018 18:00:00 14,1 5,7 14,7 13,6 11 6 24 13 WZW 1021,2 19 0,0
23.04.2018 17:00:00 13,0 4,7 14,3 13,6 15 8 28 15 WZW 1021,6 44 0,0
23.04.2018 16:00:00 13,5 4,9 15,1 13,5 16 8 28 15 WNW 1021,7 39 0,0
23.04.2018 15:00:00 13,6 4,2 14,7 13,5 14 8 26 14 WZW 1021,9 32 0,0
23.04.2018 14:00:00 13,2 3,8 13,3 13,4 14 8 22 12 W 1022,1 16 0,0
23.04.2018 13:00:00 11,9 5,5 12,5 13,5 10 5 24 13 WNW 1022,1 42 0,0
23.04.2018 12:00:00 12,2 5,1 12,5 13,5 15 8 22 12 W 1022,0 50 0,0
23.04.2018 11:00:00 11,4 5,9 11,0 13,5 12 7 21 11 WNW 1021,6 43 0,0
23.04.2018 10:00:00 10,8 7,1 10,1 13,6 9 5 15 8 WNW 1021,3 38 0,0
23.04.2018 09:00:00 9,4 8,8 7,7 13,8 8 4 11 6 WZW 1021,1 13 0,0
23.04.2018 08:00:00 7,6 7,2 5,7 13,9 8 4 13 7 ZW 1020,5 6 0,0
23.04.2018 07:00:00 7,9 7,1 7,0 14,1 9 5 11 6 WZW 1019,9 2,7 0,2
23.04.2018 06:00:00 8,3 7,7 6,3 14,2 8 5 9 5 W 1019,7 0,3 0,0
23.04.2018 05:00:00 8,2 7,4 5,9 14,3 3 2 8 4 W 1019,3 1,2 0,0
23.04.2018 04:00:00 8,4 7,3 7,0 14,4 6 3 16 9 NW 1018,9 18 0,0
23.04.2018 03:00:00 9,9 8,8 7,5 14,6 11 6 21 11 NW 1019,2 45 0,0
23.04.2018 02:00:00 8,9 7,8 7,5 14,6 10 6 22 12 NNW 1018,7 42 0,0
23.04.2018 01:00:00 10,3 9,2 10,0 14,7 13 7 24 13 NNW 1018,4 20 0,0
23.04.2018 00:00:00 11,0 10,4 11,1 14,8 14 8 24 13 NNW 1017,9 1,3 0,2
22.04.2018 23:00:00 12,4 10,8 12,0 14,9 9 5 15 8 WNW 1017,1 18 0,0
22.04.2018 22:00:00 12,4 10,5 11,9 14,9 8 4 16 9 WNW 1016,4 37 0,0
22.04.2018 21:00:00 12,9 10,3 12,9 14,9 10 6 21 11 WNW 1015,6 44 0,0
22.04.2018 20:00:00 13,5 10,5 13,9 14,8 13 7 24 13 NW 1014,8 45 0,0
22.04.2018 19:00:00 15,1 10,3 15,9 14,8 12 7 24 13 NW 1014,2 46 0,0
22.04.2018 18:00:00 15,9 8,9 17,5 14,6 13 7 24 13 WNW 1013,9 43 0,0
22.04.2018 17:00:00 16,6 5,5 18,6 14,5 13 7 35 19 WNW 1013,8 27 0,0
22.04.2018 16:00:00 17,1 9,3 18,8 14,3 21 11 34 18 NNW 1013,6 28 0,0
22.04.2018 15:00:00 17,9 6,7 19,4 14,1 21 11 28 15 WNW 1013,1 10 0,0
22.04.2018 14:00:00 17,6 8,4 21,2 13,9 10 5 21 11 W 1012,8 20 0,0
22.04.2018 13:00:00 16,2 8,9 18,8 13,8 9 5 35 19 WNW 1012,9 20 0,0
22.04.2018 12:00:00 15,6 9,5 16,4 13,8 11 6 22 12 WZW 1013,0 8 0,0
22.04.2018 11:00:00 14,5 10,7 16,6 13,8 17 9 28 15 W 1013,0 4,7 0,0
22.04.2018 10:00:00 13,5 11,2 12,1 13,9 21 11 28 15 ZW 1012,7 3,1 0,0
22.04.2018 09:00:00 12,0 10,9 11,6 14,0 17 9 31 17 ZW 1012,5 2,8 0,0
22.04.2018 08:00:00 11,4 10,1 9,4 14,2 7 4 18 10 ZW 1011,8 10 0,0
22.04.2018 07:00:00 11,4 9,8 9,3 14,3 15 8 21 11 Z 1011,6 13 0,0
22.04.2018 06:00:00 11,3 9,9 9,6 14,4 14 8 22 12 Z 1011,8 13 0,0
22.04.2018 05:00:00 11,7 9,8 10,1 14,6 14 8 21 11 Z 1011,9 15 0,0
22.04.2018 04:00:00 12,3 8,9 10,5 14,7 14 8 24 13 ZZW 1012,4 17 0,0
22.04.2018 03:00:00 12,9 7,6 10,5 14,9 12 7 21 11 ZZW 1012,6 20 0,0
22.04.2018 02:00:00 13,6 8,4 12,0 15,0 13 7 18 10 Z 1013,2 19 0,0
22.04.2018 01:00:00 13,8 8,4 11,0 15,1 10 5 22 12 Z 1013,8 29 0,0
22.04.2018 00:00:00 15,4 7,2 13,0 15,2 17 9 28 15 ZZW 1013,9 34 0,0
21.04.2018 23:00:00 16,0 8,0 14,1 15,3 17 9 28 15 Z 1014,0 20 0,0
21.04.2018 22:00:00 17,5 8,9 14,8 15,3 8 5 21 11 Z 1014,0 37 0,0
21.04.2018 21:00:00 19,6 9,8 17,9 15,2 12 7 31 17 Z 1014,0 49 0,0
21.04.2018 20:00:00 22,2 9,4 23,3 15,2 21 11 31 17 ZZW 1013,7 40 0,0
21.04.2018 19:00:00 23,9 11,6 26,3 15,0 16 9 34 18 ZW 1013,8 20 0,0
21.04.2018 18:00:00 26,0 8,0 27,0 14,8 19 10 31 17 Z 1014,1 34 0,0
21.04.2018 17:00:00 26,2 7,7 28,4 14,5 19 10 35 19 ZW 1014,3 21 0,0
21.04.2018 16:00:00 27,0 7,4 30,8 14,2 18 10 37 20 ZZW 1015,1 22 0,0
21.04.2018 15:00:00 26,3 7,8 29,8 13,9 21 11 37 20 Z 1015,5 25 0,0
21.04.2018 14:00:00 26,1 9,4 29,7 13,6 22 12 35 19 ZZW 1016,0 20 0,0
21.04.2018 13:00:00 25,6 10,2 29,1 13,4 16 9 26 14 Z 1016,6 20 0,0
21.04.2018 12:00:00 24,5 11,4 27,3 13,2 8 5 21 11 Z 1017,1 20 0,0
21.04.2018 11:00:00 22,4 12,1 25,2 13,2 3 2 8 4 ZZW 1017,5 18 0,0
21.04.2018 10:00:00 20,9 11,8 20,7 13,2 0 0 4 2 N 1017,9 14 0,0
21.04.2018 09:00:00 15,4 12,3 11,7 13,3 3 2 13 7 O 1018,4 6 0,0
21.04.2018 08:00:00 12,2 10,3 9,4 13,4 11 6 13 7 O 1018,8 4,8 0,0
21.04.2018 07:00:00 11,1 10,0 8,2 13,6 6 4 11 6 O 1018,8 4,8 0,0
21.04.2018 06:00:00 9,9 9,0 7,3 13,7 7 4 15 8 O 1019,1 4,6 0,0
21.04.2018 05:00:00 11,4 9,8 8,1 13,8 8 5 13 7 ONO 1019,4 4,6 0,0
21.04.2018 04:00:00 9,5 8,4 8,2 13,9 7 4 9 5 NO 1020,3 4,4 0,0
21.04.2018 03:00:00 11,6 9,8 10,0 14,1 8 4 16 9 ONO 1020,7 3,3 0,0
21.04.2018 02:00:00 11,3 10,0 9,2 14,2 12 7 15 8 ONO 1021,3 4,3 0,0
21.04.2018 01:00:00 11,0 9,4 9,9 14,4 11 6 18 10 NO 1021,7 6 0,0
21.04.2018 00:00:00 12,1 9,8 10,2 14,4 9 5 11 6 O 1022,0 7 0,0
20.04.2018 23:00:00 12,0 9,0 11,0 14,5 11 6 18 10 O 1022,3 8 0,0
20.04.2018 22:00:00 12,1 9,1 11,3 14,6 10 5 18 10 ONO 1022,4 8 0,0
20.04.2018 21:00:00 13,0 8,7 12,3 14,6 12 6 21 11 NO 1022,5 12 0,0
20.04.2018 20:00:00 15,4 9,1 17,4 14,5 14 8 22 12 NO 1022,1 16 0,0
20.04.2018 19:00:00 16,6 10,0 21,0 14,4 18 10 26 14 NNO 1022,2 10 0,0
20.04.2018 18:00:00 18,1 10,2 21,6 14,2 17 9 28 15 NNO 1022,2 18 0,0
20.04.2018 17:00:00 18,4 9,7 22,7 13,9 18 10 28 15 NNO 1022,6 14 0,0
20.04.2018 16:00:00 18,3 10,4 22,3 13,6 21 11 28 15 NNO 1022,9 13 0,0
20.04.2018 15:00:00 19,0 12,3 25,2 13,3 16 8 28 15 NNO 1023,3 13 0,0
20.04.2018 14:00:00 19,0 12,7 27,0 13,0 15 8 24 13 NNO 1023,5 13 0,0
20.04.2018 13:00:00 18,9 11,9 24,6 12,8 13 7 22 12 NNO 1023,7 12 0,0
20.04.2018 12:00:00 17,8 11,4 20,0 12,8 11 6 16 9 NNO 1023,9 12 0,0
20.04.2018 11:00:00 15,4 12,5 16,2 12,7 8 4 13 7 ONO 1024,0 10 0,0
20.04.2018 10:00:00 11,4 11,1 12,3 12,8 4 2 11 6 NNO 1024,2 0,4 0,0
20.04.2018 09:00:00 9,7 9,4 8,6 12,9 3 2 11 6 N 1024,2 0,7 0,2
20.04.2018 08:00:00 8,2 7,9 8,5 13,0 4 2 8 4 ONO 1023,9 0,1 0,0
20.04.2018 07:00:00 8,6 8,3 8,0 13,1 5 3 9 5 ONO 1023,5 0,1 0,0
20.04.2018 06:00:00 8,2 7,9 8,1 13,2 4 2 5 3 NO 1023,6 0,1 0,0
20.04.2018 05:00:00 8,1 7,8 7,6 13,3 4 2 9 5 NNO 1023,9 0,1 0,0
20.04.2018 04:00:00 8,4 8,1 8,0 13,5 4 2 9 5 - 1023,8 0,4 0,2
20.04.2018 03:00:00 8,4 8,1 8,4 13,6 5 3 13 7 NNO 1024,0 0,2 0,0
20.04.2018 02:00:00 8,5 8,2 6,7 13,7 7 4 13 7 N 1024,2 0,1 0,0
20.04.2018 01:00:00 8,6 8,2 7,2 13,8 7 4 13 7 NO 1024,2 0,8 0,0
20.04.2018 00:00:00 8,7 8,2 7,6 13,9 6 4 9 5 NNO 1024,5 0,4 0,0
19.04.2018 23:00:00 8,7 7,9 8,0 14,1 7 4 13 7 NO 1024,7 0,3 0,0
19.04.2018 22:00:00 9,9 8,5 9,1 14,1 10 5 16 9 NO 1024,5 4,0 0,0
19.04.2018 21:00:00 11,8 9,4 11,7 14,1 13 7 21 11 NO 1023,9 8 0,0
19.04.2018 20:00:00 14,1 9,7 17,0 14,0 15 8 26 14 NNO 1023,8 13 0,0
19.04.2018 19:00:00 15,9 9,6 18,9 13,9 16 9 28 15 NNO 1023,6 20 0,0
19.04.2018 18:00:00 16,8 9,7 20,2 13,7 22 12 31 17 NO 1023,2 19 0,0
19.04.2018 17:00:00 17,0 9,7 20,8 13,4 20 11 29 16 NNO 1023,4 19 0,0
19.04.2018 16:00:00 17,7 10,8 24,1 13,1 21 11 31 17 NNO 1023,4 19 0,0
19.04.2018 15:00:00 17,5 10,4 26,2 12,8 19 11 28 15 NNO 1023,6 16 0,0
19.04.2018 14:00:00 17,9 11,0 24,6 12,4 18 10 26 14 N 1023,4 19 0,0
19.04.2018 13:00:00 17,9 10,3 24,5 12,2 16 8 22 12 N 1023,7 20 0,0
19.04.2018 12:00:00 17,8 11,1 25,4 12,1 11 6 18 10 N 1023,9 19 0,0
19.04.2018 11:00:00 16,4 11,1 23,4 12,1 7 4 11 6 N 1023,9 26 0,0
19.04.2018 10:00:00 15,0 10,6 15,9 12,2 6 3 9 5 N 1023,9 20 0,0
19.04.2018 09:00:00 13,1 9,7 8,3 12,3 0 0 4 2 N 1023,7 18 0,0
19.04.2018 08:00:00 9,4 8,2 5,1 12,4 3 2 11 6 O 1023,1 14 0,0
19.04.2018 07:00:00 7,8 6,7 5,4 12,5 8 5 11 6 ZZO 1022,8 10 0,0
19.04.2018 06:00:00 8,6 7,1 5,9 12,7 5 3 8 4 Z 1022,8 14 0,0
19.04.2018 05:00:00 9,6 8,0 6,7 12,8 3 2 13 7 ZZW 1022,8 14 0,0
19.04.2018 04:00:00 10,7 9,0 7,9 12,9 9 5 11 6 ZZO 1022,7 16 0,0
19.04.2018 03:00:00 10,0 7,6 7,1 13,1 7 4 8 4 ZO 1022,7 20 0,0
19.04.2018 02:00:00 11,8 7,5 9,3 13,2 7 4 13 7 WZW 1023,0 20 0,0
19.04.2018 01:00:00 12,5 6,7 7,7 13,3 5 3 8 4 ZZO 1022,8 44 0,0
19.04.2018 00:00:00 12,7 5,6 9,8 13,4 4 2 9 5 ONO 1022,6 50 0,0
18.04.2018 23:00:00 14,0 6,1 10,9 13,4 2 1 21 11 WZW 1022,5 51 0,0
18.04.2018 22:00:00 17,5 5,1 14,4 13,4 14 7 22 12 ZZW 1021,9 56 0,0
18.04.2018 21:00:00 19,7 3,8 17,9 13,4 17 9 29 16 Z 1021,0 54 0,0
18.04.2018 20:00:00 21,9 5,3 23,5 13,3 17 9 41 22 Z 1020,7 33 0,0
18.04.2018 19:00:00 23,1 3,1 25,3 13,2 28 15 39 21 Z 1020,6 10 0,0
18.04.2018 18:00:00 24,1 2,8 27,3 13,0 26 14 44 24 Z 1020,7 17 0,0
18.04.2018 17:00:00 24,8 5,0 28,4 12,7 29 16 48 26 Z 1021,0 16 0,0
18.04.2018 16:00:00 25,1 3,7 28,5 12,4 27 14 50 27 Z 1021,3 15 0,0
18.04.2018 15:00:00 24,5 5,3 27,9 12,0 28 15 42 23 Z 1021,4 16 0,0
18.04.2018 14:00:00 23,3 4,7 26,8 11,7 26 14 42 23 Z 1021,9 18 0,0
18.04.2018 13:00:00 22,7 8,4 24,6 11,6 24 13 48 26 ZO 1022,4 18 0,0
18.04.2018 12:00:00 21,1 7,7 22,9 11,4 26 14 41 22 ZZO 1023,0 22 0,0
18.04.2018 11:00:00 19,5 9,1 20,7 11,4 23 12 39 21 ZO 1023,7 20 0,0
18.04.2018 10:00:00 17,4 8,3 17,2 11,4 21 11 29 16 ZO 1024,1 40 0,0
18.04.2018 09:00:00 14,4 9,0 11,1 11,5 13 7 21 11 OZO 1024,4 54 0,0
18.04.2018 08:00:00 11,8 8,3 9,9 11,5 16 9 22 12 OZO 1024,8 54 0,0
18.04.2018 07:00:00 12,0 8,3 9,7 11,6 14 8 24 13 ZO 1024,7 57 0,0
18.04.2018 06:00:00 12,2 8,3 10,4 11,7 16 9 26 14 ZZO 1024,7 60 0,0
18.04.2018 05:00:00 12,2 8,3 10,2 11,8 14 7 24 13 ZZO 1024,7 50 0,0
18.04.2018 04:00:00 11,8 8,1 10,0 11,8 11 6 18 10 Z 1024,5 54 0,0
18.04.2018 03:00:00 11,6 8,1 10,1 11,9 11 6 24 13 Z 1024,7 10 0,0
18.04.2018 02:00:00 12,4 8,5 10,9 11,9 17 9 29 16 ZZW 1024,6 49 0,0
18.04.2018 01:00:00 12,1 9,3 11,0 11,9 19 11 34 18 Z 1024,4 49 0,0
18.04.2018 00:00:00 12,6 9,2 11,6 12,0 19 11 34 18 Z 1024,1 47 0,0
17.04.2018 23:00:00 13,6 9,8 13,3 11,9 22 12 35 19 Z 1023,8 48 0,0
17.04.2018 22:00:00 14,7 10,5 14,2 11,9 27 15 42 23 ZZW 1023,1 53 0,0
17.04.2018 21:00:00 14,9 10,5 14,6 11,9 28 15 44 24 ZZW 1022,4 57 0,0
17.04.2018 20:00:00 15,3 10,3 15,3 11,8 29 16 55 30 ZW 1021,9 43 0,0
17.04.2018 19:00:00 15,6 10,4 16,2 11,7 32 17 57 31 ZZW 1021,5 45 0,0

tt = temperatuur
td = dauwpunt
tt 5cm = temperatuur 5cm
tt -20cm = temperatuur -20cm
ff = windsnelheid
fx = windstoten
dd = windrichting
ppp = luchtdruk
vv = zicht
rr = neerslag

Weerstations in de omgeving